User: anonymous   Login
Location: Mentone
(34.5413°N, 85.5351°W)
Time: 22:31:20
(UTC-05:00)
Language:

Uosat F - Orbit

View from above orbital plane
View from above orbital plane
View from above satellite
View from above satellite

Ground track
Ground track

The orbit data is extracted from the following two-line orbital elements,

1 21575U 91050B   16211.50037779  .00000019  00000-0  20375-4 0  9995
2 21575  98.7617 214.0853 0007381 171.5886 188.5427 14.40750562314814
Epoch (UTC): 29 July 2016 12:00:32
Eccentricity: 0.0007381
inclination: 98.7617°
perigee height: 751 km
apogee height: 761 km
right ascension of ascending node: 214.0853°
argument of perigee: 171.5886°
revolutions per day: 14.40750562
mean anomaly at epoch: 188.5427°
orbit number at epoch: 31481

The dashed part of the orbit path shows where the satellite is in the earth's shadow,  

DLR